San Carlos, CA

2:18 PM PST on December 07, 2016 (GMT -0800)
San Carlos

Weather History for KSQL - March, 2013

Change the Weather History Date:

Saturday, March 23, 2013

  Actual Average Record
Temperature  
Mean Temperature 56 °F -  
Max Temperature 66 °F 66 °F 78 °F (1970)
Min Temperature 46 °F 45 °F 36 °F (1952)
Degree Days  
Heating Degree Days 9    
Growing Degree Days 6 (Base 50)    
Moisture  
Dew Point 37 °F    
Average Humidity 60    
Maximum Humidity 76    
Minimum Humidity 23    
Precipitation  
Precipitation 0.00 in - - ()
Sea Level Pressure  
Sea Level Pressure 30.11 in    
Wind  
Wind Speed 1 mph (NNW)    
Max Wind Speed 15 mph    
Max Gust Speed -    
Visibility 10 miles    
Events      
Averages and records for this station are not official NWS values.
T = Trace of Precipitation, MM = Missing Value Source: NWS Daily Summary

Daily Weather History Graph

Daily Weather History Graph

Search for Another Location

Airport or City:

Trip Planner

Search our weather history database for the weather conditions in past years. The results will help you decide how hot, cold, wet, or windy it might be!

Date:

Astronomy

Mar. 23, 2013 Rise Set
Actual Time 7:07 AM PDT 7:23 PM PDT
Civil Twilight 6:41 AM PDT 7:50 PM PDT
Nautical Twilight 6:10 AM PDT 8:20 PM PDT
Astronomical Twilight 5:39 AM PDT 8:51 PM PDT
Moon 3:59 PM PDT (3/23) 4:42 AM PDT (3/23)
Length of Visible Light 13h 08m
Length of Day
12h 16m
Waxing Gibbous, 86% of the Moon is Illuminated
Mar 23
Waxing Gibbous
Mar 27
Full
Apr 2
Last Quarter
Apr 10
New
Apr 18
First Quarter

Hourly Weather History & Observations

Time (PDT) Temp. Windchill Dew Point Humidity Pressure Visibility Wind Dir Wind Speed Gust Speed Precip Events Conditions
12:10 AM 50.0 °F - 35.6 °F 58% 30.11 in 10.0 mi Calm Calm - N/A   Clear
12:30 AM 48.2 °F - 35.6 °F 62% 30.11 in 10.0 mi Calm Calm - N/A   Clear
12:50 AM 48.2 °F - 35.6 °F 62% 30.10 in 10.0 mi Calm Calm - N/A   Clear
1:15 AM 48.2 °F - 35.6 °F 62% 30.10 in 10.0 mi Calm Calm - N/A   Clear
1:30 AM 48.2 °F - 37.4 °F 66% 30.11 in 10.0 mi Calm Calm - N/A   Clear
1:50 AM 48.2 °F - 37.4 °F 66% 30.11 in 10.0 mi WNW 3.5 mph - N/A   Clear
2:15 AM 48.2 °F - 37.4 °F 66% 30.11 in 10.0 mi Calm Calm - N/A   Clear
2:30 AM 48.2 °F - 37.4 °F 66% 30.11 in 10.0 mi Calm Calm - N/A   Clear
2:50 AM 48.2 °F - 37.4 °F 66% 30.11 in 10.0 mi Calm Calm - N/A   Clear
3:15 AM 48.2 °F - 37.4 °F 66% 30.10 in 10.0 mi Calm Calm - N/A   Clear
3:30 AM 48.2 °F - 37.4 °F 66% 30.10 in 10.0 mi Calm Calm - N/A   Clear
3:50 AM 46.4 °F 45.2 °F 37.4 °F 71% 30.10 in 10.0 mi WNW 3.5 mph - N/A   Clear
4:15 AM 46.4 °F - 37.4 °F 71% 30.10 in 10.0 mi Calm Calm - N/A   Clear
4:30 AM 46.4 °F - 37.4 °F 71% 30.10 in 10.0 mi Calm Calm - N/A   Clear
4:50 AM 46.4 °F - 37.4 °F 71% 30.10 in 10.0 mi Calm Calm - N/A   Clear
5:10 AM 46.4 °F - 37.4 °F 71% 30.10 in 10.0 mi Calm Calm - N/A   Clear
5:30 AM 46.4 °F - 37.4 °F 71% 30.10 in 10.0 mi Calm Calm - N/A   Clear
5:50 AM 46.4 °F - 37.4 °F 71% 30.11 in 10.0 mi Calm Calm - N/A   Clear
6:10 AM 46.4 °F - 37.4 °F 71% 30.11 in 10.0 mi Calm Calm - N/A   Clear
6:35 AM 46.4 °F - 37.4 °F 71% 30.12 in 10.0 mi Calm Calm - N/A   Clear
6:47 AM 46.4 °F - 37.4 °F 71% 30.12 in 10.0 mi Calm Calm - N/A   Clear
6:50 AM 46.4 °F - 37.4 °F 71% 30.11 in 10.0 mi Calm Calm - N/A   Clear
7:50 AM 46.4 °F - 39.2 °F 76% 30.14 in 10.0 mi Calm Calm - N/A   Partly Cloudy
8:48 AM 51.8 °F - 42.8 °F 71% 30.16 in 10.0 mi Calm Calm - N/A   Partly Cloudy
9:50 AM 55.4 °F - 41.0 °F 58% 30.15 in 10.0 mi Calm Calm - N/A   Partly Cloudy
10:47 AM 57.2 °F - 37.4 °F 48% 30.15 in 10.0 mi Calm Calm - N/A   Partly Cloudy
11:47 AM 59.0 °F - 32.0 °F 36% 30.15 in 10.0 mi ENE 15.0 mph - N/A   Scattered Clouds
12:47 PM 62.6 °F - 24.8 °F 24% 30.13 in 10.0 mi Calm Calm - N/A   Scattered Clouds
2:47 PM 66.2 °F - 26.6 °F 23% 30.09 in 10.0 mi NE 3.5 mph - N/A   Scattered Clouds
3:47 PM 66.2 °F - 26.6 °F 23% 30.07 in 10.0 mi NNW 8.1 mph - N/A   Mostly Cloudy
4:50 PM 66.2 °F - 35.6 °F 32% 30.06 in 10.0 mi North 9.2 mph - N/A   Mostly Cloudy
5:48 PM 57.2 °F - 39.2 °F 51% 30.06 in 10.0 mi West 8.1 mph - N/A   Mostly Cloudy
6:49 PM 62.6 °F - 37.4 °F 39% 30.06 in 10.0 mi WNW 8.1 mph - N/A   Scattered Clouds
8:50 PM 55.4 °F - 42.8 °F 63% 30.08 in 10.0 mi North 4.6 mph - N/A   Clear
9:10 PM 53.6 °F - 41.0 °F 62% 30.09 in 10.0 mi NNW 4.6 mph - N/A   Clear
9:35 PM 53.6 °F - 41.0 °F 62% 30.10 in 10.0 mi Calm Calm - N/A   Clear
9:50 PM 53.6 °F - 41.0 °F 62% 30.10 in 10.0 mi Calm Calm - N/A   Clear
10:10 PM 53.6 °F - 39.2 °F 58% 30.10 in 10.0 mi Calm Calm - N/A   Clear
10:30 PM 53.6 °F - 39.2 °F 58% 30.11 in 10.0 mi Calm Calm - N/A   Clear
10:50 PM 53.6 °F - 39.2 °F 58% 30.10 in 10.0 mi Calm Calm - N/A   Clear
11:10 PM 53.6 °F - 39.2 °F 58% 30.10 in 10.0 mi NNW 3.5 mph - N/A   Clear
11:30 PM 51.8 °F - 37.4 °F 58% 30.10 in 10.0 mi NW 3.5 mph - N/A   Clear
11:55 PM 50.0 °F - 39.2 °F 66% 30.10 in 10.0 mi NW 3.5 mph - N/A   Clear